Regional Weather Roundup
Issued by NWS Little Rock, AR

Home | Current Version | Previous Version | Text Only | Print | Product List | Glossary Off
Versions: 1 2 3 4 5 6 7 8 9 10 11 12 13 14 15 16 17 18 19 20 21 22 23 24 25 26 27 28 29 30 31 32 33 34 35 36 37 38 39 40 41 42 43 44 45 46 47 48 49 50

459
ASUS44 KLZK 241905
RWRLZK

WEATHER ROUNDUP FOR ARKANSAS
NATIONAL WEATHER SERVICE LITTLE ROCK AR
100 PM CST FRI FEB 24 2017

NOTE: "FAIR" INDICATES FEW OR NO CLOUDS BELOW 12,000 FEET WITH NO
SIGNIFICANT WEATHER AND/OR OBSTRUCTIONS TO VISIBILITY.

ARZ001-003-010-029-242000-
NORTHWEST ARKANSAS

CITY           SKY/WX    TMP DP  RH WIND       PRES   REMARKS
FAYETTEVILLE   PTSUNNY   50  37  61 W9        29.80S
FORT SMITH     MOSUNNY   55  36  48 W18       29.81S
HARRISON       MOSUNNY   52  39  61 NW14G22   29.73S
BENTONVILLE    PTSUNNY   48  30  49 NW16G24   29.80F
ROGERS         MOSUNNY   47  32  56 W15       29.79F
SILOAM SPGS    MOSUNNY   50  32  50 W13G21    29.80S
HIGHFILL       MOSUNNY   50  33  52 W16G23    29.79S
SPRINGDALE     PTSUNNY   46  34  61 W14       29.81S
$$

ARZ004-005-016-242000-
NORTH CENTRAL ARKANSAS

CITY           SKY/WX    TMP DP  RH WIND       PRES   REMARKS
BATESVILLE     CLOUDY    63  48  59 NW6       29.67R
FLIPPIN        PTSUNNY   57  37  47 NW10      29.70S
MTN HOME       CLOUDY    55  41  59 N8G21     29.70F
$$

ARZ040-041-242000-
WEST CENTRAL ARKANSAS

CITY           SKY/WX    TMP DP  RH WIND       PRES   REMARKS
MENA           CLOUDY    59  45  58 W9        29.78R
MOUNT IDA      CLOUDY    60  43  53 VRB7      29.73S
$$

ARZ009-017-025-026-028-242000-
NORTHEAST ARKANSAS

CITY           SKY/WX    TMP DP  RH WIND       PRES   REMARKS
CORNING        MOCLDY    66  59  77 SW22      29.64S
JONESBORO      CLOUDY    65  57  75 SW16G25   29.65F
NEWPORT        CLOUDY    66  58  75 S22       29.65F
WALNUT RIDGE   CLOUDY    66  54  63 SW23      29.63S
BLYTHEVILLE    CLOUDY    64  57  78 SW20G29   29.67S
NW BLYTHEVILLE CLOUDY    64  57  77 SW23G36   29.66F
$$

ARZ022-023-033-042-044-242000-
CENTRAL ARKANSAS

CITY           SKY/WX    TMP DP  RH WIND       PRES   REMARKS
LITTLE ROCK    CLOUDY    69  57  65 SW14      29.69F
N LITTLE ROCK    N/A     65  53  65 W6        29.70S
JACKSONVILLE   CLOUDY    67  54  62 W8        29.68S
SEARCY         CLOUDY    66  58  75 SW9       29.68F
HOT SPRINGS    PTSUNNY   62  49  62 W9        29.73S
RUSSELLVILLE   CLOUDY    58  44  60 W16       29.74F
CLINTON        PTSUNNY   66  50  55 VRB6      29.69S
$$

ARZ036-242000-
EAST ARKANSAS

CITY           SKY/WX    TMP DP  RH WIND       PRES   REMARKS
WEST MEMPHIS   CLOUDY    65  58  78 SW7       29.68F
$$

ARZ050-053-066-070-073-242000-
SOUTHWEST ARKANSAS

CITY           SKY/WX    TMP DP  RH WIND       PRES   REMARKS
ARKADELPHIA    MOCLDY    69  57  65 W13       29.73R
CAMDEN         PTSUNNY   73  54  49 W12G21    29.72S
TEXARKANA      PTSUNNY   63  50  62 NW13      29.77R
EL DORADO      MOSUNNY   74  58  57 W12       29.72F
DE QUEEN       PTSUNNY   63  46  54 W14       29.76R
$$

ARZ056-057-069-242000-
SOUTHEAST ARKANSAS

CITY           SKY/WX    TMP DP  RH WIND       PRES   REMARKS
PINE BLUFF     CLOUDY    68  57  68 W9        29.71S
STUTTGART      CLOUDY    64  54  68 SW10      29.71F
MONTICELLO     CLOUDY    75  56  51 SW13G20   29.70F

$$






USA.gov is the U.S. government's official web portal to all federal, state and local government web resources and services.